Tracking 31030 objects as of 16-Jul-2025
HD Live streaming from Space Station
objects crossing your sky now

STARLINK-30595

Track STARLINK-30595 now!
10-day predictions
STARLINK-30595 is classified as:


NORAD ID: 58111
Int'l Code: 2023-161Q
Perigee: 481.4 km
Apogee: 483.2 km
Inclination: 53.2 °
Period: 94.1 minutes
Semi major axis: 6853 km
RCS: Unknown
Launch date: October 21, 2023
Source: United States (US)
Launch site: AIR FORCE WESTERN TEST RANGE (AFWTR)
Your satellite tracking list
Your tracking list is empty




NASA's NSSDC Master Catalog

Two Line Element Set (TLE):
1 58111U 23161Q   25197.21091537  .00003542  00000-0  13159-3 0  9997
2 58111  53.1591 184.0961 0001258  69.6270 290.4866 15.30217701 98084
Source of the keplerian elements: AFSPC